Preview of NWS' New Version of Forecast
This preview is not operational and should not be used for support decisions.

Regional Weather Roundup (RWR)

Issued by National Weather Service (NWS)

                            
000
ASUS46 KSEW 181010
RWRWA 

WASHINGTON REGIONAL WEATHER ROUNDUP
NATIONAL WEATHER SERVICE SEATTLE WA
200 AM PST MON FEB 18 2019

NOTE:"FAIR" INDICATES FEW OR NO CLOUDS BELOW 12,000 FEET WITH NO 
SIGNIFICANT WEATHER AND/OR OBSTRUCTIONS TO VISIBILITY.

WAZ507-509-555>559-181100-
SEATTLE, TACOMA, EVERETT, AND VICINITY
  
CITY           SKY/WX    TMP DP  RH WIND       PRES   REMARKS
EVERETT        CLEAR     33  30  88 SE3       30.34S                  
BOEING FIELD   CLOUDY    35  33  92 SE3       30.37R                  
RENTON         CLOUDY    35  32  88 SE3       30.37R                  
SEATAC AIRPORT CLOUDY    36  33  89 SE6       30.35R                  
JBLM-MCCHORD   CLOUDY    32  32 100 CALM      30.36R                  
PUYALLUP       CLOUDY    32  32 100 CALM      30.35R FOG              
BREMERTON      CLOUDY    33  32  96 CALM      30.35S                  
JBLM-FT LEWIS  CLOUDY    33  33 100 SE6       30.35R                  
TACOMA NARROWS CLOUDY    36  35  96 SW3       30.36R                  
$$
 
WAZ001-503-506-510-514-515-181100-
NORTH INTERIOR
  
CITY           SKY/WX    TMP DP  RH WIND       PRES   REMARKS
BELLINGHAM     CLEAR     31  17  56 N6        30.36R                  
FRIDAY HARBOR  CLEAR     36  20  52 N6        30.37R                  
EASTSOUND      CLEAR     37  19  48 CALM      30.37R                  
PORT ANGELES   CLOUDY    37  31  78 W6        30.36R                  
EDIZ HOOK      CLOUDY    40  35  84 NE5       30.37R                  
PORT TOWNSEND  CLOUDY    30  30 100 CALM      30.36R                  
NAS WHIDBEY    NOT AVBL                                               
ARLINGTON      FOG       25  23  93 CALM      30.37S VSB 1/4          
BURLINGTON     PTCLDY    32  27  80 NE8       30.37R                  
$$
 
WAZ020-022-039-040-504-511-512-181100-
SOUTHWEST INTERIOR
  
CITY           SKY/WX    TMP DP  RH WIND       PRES   REMARKS
SHELTON        FOG       28  25  88 CALM      30.34R VSB 1            
OLYMPIA        CLOUDY    29  29 100 CALM      30.36R FOG              
CHEHALIS       CLOUDY    32  32 100 CALM      30.37R                  
KELSO          PTCLDY    28  27  96 CALM      30.39R                  
VANCOUVER      CLEAR     28  26  92 CALM      30.37R                  
SCAPPOOSE, OR  CLEAR     30  27  88 CALM      30.37R                  
PORTLAND, OR   PTCLDY    29  27  92 W3        30.38R                  
$$
 
WAZ021-516-517-181100-
WASHINGTON COAST
  
CITY           SKY/WX    TMP DP  RH WIND       PRES   REMARKS
FORKS          CLOUDY    30  28  92 CALM      30.35S                  
HOQUIAM        CLEAR     31  30  96 NE3       30.36R                  
ASTORIA, OR    MOCLDY    32  31  96 SE5       30.37R                  
$$
 
WAZ019-023-024-040-567>569-181100-
CASCADE MOUNTAINS AND COLUMBIA GORGE
  
CITY           SKY/WX    TMP DP  RH WIND       PRES   REMARKS
STAMPEDE PASS  CLOUDY    23  20  88 VRB3      30.18R FOG              
TROUTDALE, OR  CLOUDY    34  32  92 CALM      30.37R                  
HOOD RIVER, OR CLOUDY    32  32 100 CALM      30.35R                  
THE DALLES, OR CLOUDY    33  31  92 CALM      30.36R                  
$$

WAZ026-027-041>044-520-521-181100-
EAST SLOPES
  
CITY           SKY/WX    TMP DP  RH WIND       PRES   REMARKS
OMAK           CLEAR     23  12  62 N14       30.35R WCI  11          
WENATCHEE      PTCLDY    22  13  68 E9        30.32S                  
ELLENSBURG     CLOUDY    28  22  78 E3        30.29S                  
YAKIMA         CLOUDY    30  27  88 SW3       30.34R                  
SUNNYSIDE ARPT CLOUDY    31  23  73 NE6       30.35                   
YAKIMA TC      FLURRIES  27  22  83 SE6       30.30R                  
$$

WAZ028-034-035-181100-
COLUMBIA BASIN
  
CITY           SKY/WX    TMP DP  RH WIND       PRES   REMARKS
EPHRATA        PTCLDY    19  12  74 NW6       30.33R                  
MOSES LAKE     CLOUDY     1   1 100 NW6       30.34R                  
PASCO          CLOUDY    27  21  78 NW3       30.38R                  
RICHLAND ARPT  MOSUNNY   25  24  93 CALM      30.38                   
HERMISTON, OR  CLOUDY    30  22  72 N3        30.34R                  
$$

WAZ036>038-181100-
NORTHEAST WASHINGTON
  
CITY           SKY/WX    TMP DP  RH WIND       PRES   REMARKS
SPOKANE GEIGER PTCLDY    14   4  64 N3        30.25R                  
SPOKANE FELTS  CLEAR     12   8  84 CALM      30.29R                  
FAIRCHILD AFB  PTCLDY    13   3  64 NE10      30.23R WCI  -1          
COEURDALENE,ID CLEAR      9   3  77 NE10      30.26R WCI  -5          
DEER PARK      CLEAR      5   2  87 CALM      30.27R                  
$$

WAZ029>033-181100-
SOUTHEAST WASHINGTON
  
CITY           SKY/WX    TMP DP  RH WIND       PRES   REMARKS
PULLMAN        PTCLDY    12   8  84 CALM      30.19R                  
LEWISTON, ID   PTCLDY    26  18  71 NW9       30.24R                  
WALLA WALLA    CLOUDY    29  25  85 SE5       30.29R                  
PENDLETON, OR  CLOUDY    27  25  92 W5        30.28R                  
$$